UMKA 1 (RS40S)

Last updated on Wed Sep 09 2026 00:03:15 GMT+0000 (Coordinated Universal Time)

1 57172U 23091G 26251.56597499 .00005580 00000+0 24977-3 0 9996 2 57172 97.4975 309.9529 0012457 180.9884 179.1329 15.21620555176681
UTC large
Height (km)
Speed (km/s)
/
Latitude / Longitude
Inclination (degrees)
Orbital Period (minutes)
Azimuth
Elevation
Range (km)
Doppler Factor

Next 0 passes for location: London (51.5072 / 0.1276)

No passes found over London.
UMKA 1 (RS40S)